Location: *
(58.4167°N, 22.5000°E)
Time: 04:55:58
(UTC+00:00)

Cosmos 1943 - Pass Details

Date: 22 September 2019
Orbit: 833 x 851 km, 71.0° (Epoch: 15 October)

Event Time Altitude Azimuth Distance (km) Brightness Sun altitude
Rises 20:13:41 0° 321° (NW) 3,429 7.7 -26.1°
Reaches altitude 10° 20:16:20 10° 313° (NW) 2,488 6.6 -26.3°
Maximum altitude 20:21:26 35° 250° (WSW) 1,353 4.3 -26.7°
Enters shadow 20:22:31 32° 227° (SW) 1,423 4.2 -26.8°
